Simultaneous Nadir Overpasses (SNOs) Predictions

Prediction of SNOs between NOAA-21 and LANDSAT-8 Satellite Orbit:

Table of predicted SNOs for the next 14.0 days since TLE Epoch: 11/1/2024
Index Date (NOAA-21) Time (NOAA-21) Lat,Lon (NOAA-21) SZA (NOAA-21 ) Date (LANDSAT-8) Time (LANDSAT-8) Lat,Lon (LANDSAT-8) SZA (LANDSAT-8 ) Distance(km) Time Diff (sec)
1 11/01/2024 21:47:11 70.26,-150.36 84.96 11/01/2024 21:48:13 70.27,-150.36 84.97 1.22 62
2 11/01/2024 22:37:53 -70.18, 17.08 95.11 11/01/2024 22:37:43 -70.16, 17.11 95.13 2.65 10
3 11/01/2024 23:28:28 69.56,-174.68 84.29 11/01/2024 23:27:18 69.62,-176.00 84.34 51.42 70
4 11/04/2024 14:04:17 70.22, -34.58 85.75 11/04/2024 14:04:50 70.20, -34.62 85.73 3.24 33
5 11/04/2024 14:54:58 -70.09, 132.94 94.38 11/04/2024 14:54:20 -70.09, 132.87 94.37 3.03 38
6 11/07/2024 05:30:45 -70.67, -86.87 93.02 11/07/2024 05:31:56 -70.54, -85.92 93.15 38.04 71
7 11/07/2024 06:21:22 70.17, 81.22 86.50 11/07/2024 06:21:28 70.16, 81.18 86.49 1.72 6
8 11/07/2024 07:12:04 -70.08,-111.33 93.58 11/07/2024 07:10:58 -70.06,-111.33 93.61 1.94 66
9 11/09/2024 21:47:42 -70.27, 29.47 92.65 11/09/2024 21:48:39 -70.27, 29.53 92.65 2.09 57
10 11/09/2024 22:38:26 70.15,-163.03 87.24 11/09/2024 22:38:06 70.17,-162.97 87.26 2.98 20
11 11/09/2024 23:28:56 -69.42, 5.37 93.48 11/09/2024 23:27:47 -69.47, 3.69 93.44 65.89 69
12 11/12/2024 14:04:46 -70.23, 145.27 91.96 11/12/2024 14:05:21 -70.21, 145.27 91.98 2.11 35
13 11/12/2024 14:55:30 70.11, -47.25 87.94 11/12/2024 14:54:48 70.10, -47.23 87.93 0.82 42
14 11/15/2024 05:31:17 70.80, 92.77 89.31 11/15/2024 05:32:26 70.71, 94.21 89.22 53.77 69
15 11/15/2024 06:21:49 -70.16, -98.91 91.33 11/15/2024 06:22:04 -70.19, -98.94 91.31 2.51 15
16 11/15/2024 07:12:33 70.05, 68.57 88.58 11/15/2024 07:11:31 70.08, 68.56 88.60 2.86 62



Historial Predications of SNOs between NOAA-21 and LANDSAT-8
